Showing default

GONETS M 19, 46488

Orbit data source: Space-Track

GONETS M 19, 46488 is a payload satellite owned by Gonets (CIS) in LEO that was launched on Mon, 28 Sep 2020 UTC via a SOYUZ-2-1B launch vehicle from the Plesetsk Missile And Space Complex (PKMTR). Payload-class satellites include a variety of spacecraft equipped with specific instruments for various scientific and technological missions. These include communications satellites like Starlink; space stations such as the ISS; scientific satellites like the Hubble; Earth observation satellites from companies like Planet Labs, Umbra, and HawkEye 360; GPS; miniature CubeSats for education and research; and military/defense satellites.

Loading next visibility...
Identifier
46488, 2020-068C
Orbit
LEO
Country
Flag of CISCIS
Related business
Manufacturer
Resehetnev ISS
Mission
Operational Commercial Communications
Bus & Motor
STRELA-3M, Unknown motor
Mass
225 kg wet, 225 kg dry
Launch date (UTC)
2020-09-28 (5 years ago)
Launch vehicle
SOYUZ-2-1B
Launch site
Plesetsk Missile And Space Complex (PKMTR)
Object type
Payload
Rocket body
Debris
Shape & HBR
Cyl + 1 Ant, 3.5 m
Radar Cross Section
1.798 m², Large (>1 m²)

Expand to show TLE details & history
Last TLE update: 6 hours ago

TLE from 6 hours ago
0 GONETS M 19
1 46488U 20068C   25242.95527667  .00000041  00000-0  22804-3 0  9992
2 46488  82.4996 167.6713 0013489 325.8378  34.1832 12.42861213223190
Epoch: 2025-08-30T22:55Z
TLE epoch observation values (Epoch: 2025-08-30T22:55:35.904Z)
Latitude
-0.00006°
Longitude
-155.61046°
Altitude
1,488.415 km
Speed
7.124 km/s
True Right ascension
11h 10m 41s
True Declination
0° 00' 00"
Sunlit
Object was in daylight at epoch
Visualization orbit readout
Latitude
Unknown
Longitude
Unknown
Altitude
Unknown
Speed
Unknown
Apparent Right ascension
Unknown
Apparent Declination
Unknown
Sunlit
N/A
Visualization observer readout
Local Sidereal Time
20:07:20
Azimuth
Unknown
Elevation
Unknown
Doppler factor
Unknown
Orbital elements
Apogee altitude
1,502.465 km
Perigee altitude
1,481.233 km
Semi-major axis
7,869.986 km
Eccentricity
0.00135
Inclination
82.4996°
RAAN
167.6713°
Arg. of periapsis
325.8378°
True anomaly
34.27017°
Mean anomaly
34.1832°
Eccentric anomaly
34.22667°
Mean motion
3.10872 °/min
Orbital period
115.8 mins
BSTAR
0.00022804
Loading maneuver chart data...
Computing Atmospheric mass density...
Loading historical data...
Loading historical data...
Loading historical data...
Loading historical data...
Loading historical data...
Loading historical data...
Loading historical data...

Documentation

Showing up to 5 results
|